Regional Weather Roundup
Issued by NWS

Home | Current Version | Previous Version | Graphics & Text | Print | Product List | Glossary On
Versions: 1 2 3 4 5 6 7 8 9 10 11 12 13 14 15 16 17 18 19 20 21 22 23 24 25 26 27 28 29 30 31 32 33 34 35 36 37 38 39 40 41 42 43 44 45 46 47 48 49 50
000
ASUS43 KMKX 170611
RWRWI

WISCONSIN REGIONAL WEATHER ROUNDUP
NATIONAL WEATHER SERVICE MILWAUKEE/SULLIVAN WI
100 AM CDT TUE OCT 17 2017

NOTE: "FAIR" INDICATES FEW OR NO CLOUDS BELOW 12,000 FEET WITH NO
SIGNIFICANT WEATHER AND/OR OBSTRUCTIONS TO VISIBILITY.

WIZ001-002-006>008-014>016-023>028-170700-
NORTHWEST WISCONSIN

CITY           SKY/WX    TMP DP  RH WIND       PRES   REMARKS
SUPERIOR ARPT  CLOUDY    51  38  60 W8        29.88S
6HR MIN TEMP:  50; 6HR MAX TEMP:  56;

ASHLAND        CLOUDY    54  36  50 SW13      29.89S
6HR MIN TEMP:  52; 6HR MAX TEMP:  56;

HAYWARD        CLOUDY    53  36  52 SW5       29.94R
6HR MIN TEMP:  47; 6HR MAX TEMP:  56;

SIREN          PTCLDY    55  37  51 W8        29.93S
6HR MIN TEMP:  48; 6HR MAX TEMP:  58;

CUMBERLAND     CLOUDY    45  34  65 SW6       29.95S
RICE LAKE      CLOUDY    44  36  73 S3        29.97S
6HR MIN TEMP:  43; 6HR MAX TEMP:  52;

CHETEK         CLOUDY    45  41  83 NE3       29.96R
6HR MIN TEMP:  44; 6HR MAX TEMP:  52;

LADYSMITH      CLOUDY    46  37  69 S5        29.98S
6HR MIN TEMP:  46; 6HR MAX TEMP:  52;

EAU CLAIRE     CLOUDY    45  39  79 SW5       29.97F
6HR MIN TEMP:  43; 6HR MAX TEMP:  54;

MENOMONIE      CLOUDY    52  38  58 CALM      29.98R
6HR MIN TEMP:  47; 6HR MAX TEMP:  54;

NEW RICHMOND   CLOUDY    50  37  62 SW5       29.97R
6HR MIN TEMP:  50; 6HR MAX TEMP:  54;

OSCEOLA        CLOUDY    44  38  81 CALM      29.98S
6HR MIN TEMP:  44; 6HR MAX TEMP:  54;

$$

WIZ003>005-009-010-017-018-170700-
NORTH CENTRAL WISCONSIN

CITY           SKY/WX    TMP DP  RH WIND       PRES   REMARKS
MANITOWISH WTR PTCLDY    48  35  60 SW10      29.93S
6HR MIN TEMP:  36; 6HR MAX TEMP:  48;

ARBOR VITAE    PTCLDY    46  36  68 SW8       29.94F
6HR MIN TEMP:  45; 6HR MAX TEMP:  49;

WOODRUFF       PTCLDY    46  36  68 SW8       29.94F
6HR MIN TEMP:  45; 6HR MAX TEMP:  49;

RHINELANDER    CLOUDY    48  36  63 SW9G20    29.97F
6HR MIN TEMP:  46; 6HR MAX TEMP:  49;

EAGLE RIVER    CLOUDY    49  33  54 SW12      29.94F
6HR MIN TEMP:  45; 6HR MAX TEMP:  49;

LAND O LAKES   MOCLDY    46  35  66 SW5       29.95F
6HR MIN TEMP:  42; 6HR MAX TEMP:  47;

PHILLIPS       CLOUDY    47  36  63 SW8       29.95F
6HR MIN TEMP:  45; 6HR MAX TEMP:  49;

TOMAHAWK       CLOUDY    44  35  70 CALM      29.97F
6HR MIN TEMP:  39; 6HR MAX TEMP:  44;

MEDFORD        CLOUDY    48  36  62 S9        29.98F
6HR MIN TEMP:  44; 6HR MAX TEMP:  49;

MERRILL        CLOUDY    48  36  61 SW10      29.99F
6HR MIN TEMP:  46; 6HR MAX TEMP:  50;

$$

WIZ029-030-035-036-043>047-170700-
CENTRAL WISCONSIN

CITY           SKY/WX    TMP DP  RH WIND       PRES   REMARKS
WAUSAU         CLEAR     47  38  71 S10       29.99F
6HR MIN TEMP:  46; 6HR MAX TEMP:  52;

MOSINEE        CLEAR     45  36  70 S8        30.03S
MARSHFIELD     CLEAR     43  34  70 S6        30.01F
6HR MIN TEMP:  42; 6HR MAX TEMP:  50;

STEVENS POINT  CLEAR     45  34  66 S7        30.04F
6HR MIN TEMP:  44; 6HR MAX TEMP:  47;

WAUPACA        CLEAR     47  38  71 S5        30.06F
6HR MIN TEMP:  45; 6HR MAX TEMP:  51;

WAUTOMA        CLEAR     38  37  97 CALM      30.08F
6HR MIN TEMP:  37; 6HR MAX TEMP:  51;

WISC RAPIDS    CLEAR     46  36  68 S6        30.05F
6HR MIN TEMP:  46; 6HR MAX TEMP:  49;

CAMP DOUGLAS   NOT AVBL
$$

WIZ011>013-019>022-031-037>040-048>050-170700-
NORTHEAST WISCONSIN

CITY           SKY/WX    TMP DP  RH WIND       PRES   REMARKS
ANTIGO         CLEAR     45  36  69 SW10      30.00F
6HR MIN TEMP:  42; 6HR MAX TEMP:  45;

SHAWANO        CLEAR     48  37  66 SW3       30.03F
6HR MIN TEMP:  47; 6HR MAX TEMP:  53;

OCONTO         CLEAR     46  37  70 SW3       30.04S
6HR MIN TEMP:  46; 6HR MAX TEMP:  50;

STURGEON BAY   CLEAR     50  38  63 SW14      30.04F
6HR MIN TEMP:  48; 6HR MAX TEMP:  50;

GREEN BAY      CLEAR     50  41  71 SW9       30.06F
6HR MIN TEMP:  47; 6HR MAX TEMP:  52;

MANITOWOC      CLEAR     44  38  79 S6        30.08F
6HR MIN TEMP:  44; 6HR MAX TEMP:  52;

APPLETON       CLEAR     48  34  57 SW10      30.05F
CLINTONVILLE   CLEAR     45  36  70 S7        30.04F
OSHKOSH        CLEAR     49  38  65 SW12      30.07F
6HR MIN TEMP:  44; 6HR MAX TEMP:  49;

$$

WIZ032>034-041-042-053>061-170700-
SOUTHWEST WISCONSIN

CITY           SKY/WX    TMP DP  RH WIND       PRES   REMARKS
LA CROSSE      CLEAR     55  42  61 S10       30.03S
6HR MIN TEMP:  53; 6HR MAX TEMP:  57;

SPARTA         CLEAR     51  38  59 S3        30.05F
6HR MIN TEMP:  43; 6HR MAX TEMP:  53;

VIROQUA        CLEAR     52  38  60 CALM      30.07S
6HR MIN TEMP:  51; 6HR MAX TEMP:  54;

BOSCOBEL       CLOUDY    41  38  89 CALM      30.10F
6HR MIN TEMP:  41; 6HR MAX TEMP:  51;

PRAIRIE DU CHI CLEAR     55  36  48 CALM      30.09F
6HR MIN TEMP:  48; 6HR MAX TEMP:  56;

PLATTEVILLE    PTCLDY    49  39  69 S8        30.14S
6HR MIN TEMP:  47; 6HR MAX TEMP:  55;

$$

WIZ056-057-062-063-064-067-068-170700-
SOUTH CENTRAL WISCONSIN

CITY           SKY/WX    TMP DP  RH WIND       PRES   REMARKS
REEDSBURG      CLOUDY    52  37  56 S9        30.08S
6HR MIN TEMP:  49; 6HR MAX TEMP:  52;

BARABOO/DELLS  CLOUDY    52  35  52 SW15G21   30.08F
6HR MIN TEMP:  44; 6HR MAX TEMP:  52;

LONE ROCK      PTCLDY    52  39  61 SW5       30.10F
6HR MIN TEMP:  42; 6HR MAX TEMP:  52;

MINERAL POINT  CLEAR     50  37  62 S8        30.12F
MADISON        CLOUDY    53  38  56 SW7       30.12F
6HR MIN TEMP:  51; 6HR MAX TEMP:  55;

MIDDLETON      CLOUDY    52  37  56 SW9       30.11F
6HR MIN TEMP:  51; 6HR MAX TEMP:  55;

WATERTOWN      PTCLDY    46  40  78 S6        30.12F
6HR MIN TEMP:  44; 6HR MAX TEMP:  51;

MONROE         CLEAR     46  36  66 SW15      30.13F
JANESVILLE     CLEAR     46  37  71 S5        30.15F
$$

WIZ051-052-058>065-066-070>072-170700-
SOUTHEAST WISCONSIN

CITY           SKY/WX    TMP DP  RH WIND       PRES   REMARKS
MILWAUKEE      CLEAR     49  39  68 SW8       30.15F
6HR MIN TEMP:  48; 6HR MAX TEMP:  57;

WAUKESHA       CLOUDY    45  36  70 S3        30.15F
MILWAUKEE/TIMM CLEAR     48  34  57 SW8       30.14F
RACINE         CLEAR     47  39  74 SW7       30.17F
6HR MIN TEMP:  46; 6HR MAX TEMP:  52;

BURLINGTON     CLEAR     39  39 100 CALM      30.16F
6HR MIN TEMP:  38; 6HR MAX TEMP:  48;

KENOSHA        CLEAR     47  37  68 SW8       30.17F
6HR MIN TEMP:  43; 6HR MAX TEMP:  55;

FOND DU LAC    CLEAR     51  35  54 SW9       30.09F
6HR MIN TEMP:  44; 6HR MAX TEMP:  51;

SHEBOYGAN      CLEAR     44  39  82 SW8       30.10F
6HR MIN TEMP:  41; 6HR MAX TEMP:  48;

WEST BEND      CLOUDY    50  36  57 SW10      30.11F
JUNEAU         CLOUDY    47  37  68 S6        30.12F
6HR MIN TEMP:  46; 6HR MAX TEMP:  51;

$$

LSZ147-162-170700-
LAKE SUPERIOR

STATION/POSITION TIME  TEMP    WIND        PRES    WAVE
                       AIR SEA DIR/SP/G            HT/PER
                 (UTC) (F)     (DEG/KT/KT) (MB)    (FT/S)
W MID LAKE BUOY  0550   55 53              1010.1R   4/ 5
DEVILS ISLAND    0600   57     240/ 22/ 27 1010.7R
PORT WING        0420          200/ 16/ 25 1011.5
SAXON HARBOR     0540   58     200/  8/ 15 1011.2S
$$

LMZ867-665-643>646-170700-
LAKE MICHIGAN

STATION/POSITION TIME  TEMP    WIND        PRES    WAVE
                       AIR SEA



USA.gov is the U.S. government's official web portal to all federal, state and local government web resources and services.